TimeEDT,TemperatureF,Dew PointF,Humidity,Sea Level PressureIn,VisibilityMPH,Wind Direction,Wind SpeedMPH,Gust SpeedMPH,PrecipitationIn,Events,Conditions,WindDirDegrees,DateUTC
12:54 AM,57.9,53.1,84,30.06,10.0,Calm,Calm,-,N/A,,Overcast,0,2012-10-24 04:54:00
2:54 AM,64.0,52.0,65,30.07,10.0,WSW,3.5,-,0.00,,Overcast,250,2012-10-24 06:54:00
3:54 AM,62.1,55.9,80,30.10,5.0,West,10.4,24.2,0.02,Rain,Rain,270,2012-10-24 07:54:00
4:54 AM,60.1,57.0,90,30.09,10.0,Calm,Calm,-,0.03,,Overcast,0,2012-10-24 08:54:00
5:54 AM,60.1,55.9,86,30.09,10.0,Calm,Calm,-,N/A,,Overcast,0,2012-10-24 09:54:00
6:54 AM,57.0,54.0,89,30.10,8.0,Calm,Calm,-,N/A,,Mostly Cloudy,0,2012-10-24 10:54:00
7:54 AM,57.9,55.0,90,30.11,10.0,Calm,Calm,-,N/A,,Overcast,0,2012-10-24 11:54:00
8:54 AM,60.1,55.0,83,30.12,10.0,SSW,3.5,-,N/A,,Scattered Clouds,200,2012-10-24 12:54:00
9:54 AM,64.0,55.9,75,30.13,10.0,SSW,3.5,-,N/A,,Mostly Cloudy,210,2012-10-24 13:54:00
10:54 AM,69.1,55.0,61,30.13,10.0,SSW,8.1,-,N/A,,Mostly Cloudy,200,2012-10-24 14:54:00
11:54 AM,72.0,55.9,57,30.11,10.0,South,9.2,-,N/A,,Clear,190,2012-10-24 15:54:00
12:54 PM,75.0,55.0,50,30.08,10.0,SSW,10.4,-,N/A,,Clear,210,2012-10-24 16:54:00
1:54 PM,75.9,55.9,50,30.06,10.0,SSW,9.2,-,N/A,,Clear,210,2012-10-24 17:54:00
2:54 PM,77.0,55.0,47,30.04,10.0,SSW,10.4,-,N/A,,Clear,210,2012-10-24 18:54:00
3:54 PM,78.1,55.0,45,30.04,10.0,SW,6.9,-,N/A,,Clear,220,2012-10-24 19:54:00
4:54 PM,78.1,54.0,43,30.03,10.0,SW,8.1,-,N/A,,Clear,220,2012-10-24 20:54:00
5:54 PM,77.0,52.0,42,30.04,10.0,SSW,5.8,-,N/A,,Clear,200,2012-10-24 21:54:00
6:54 PM,73.0,52.0,48,30.04,10.0,SSE,3.5,-,N/A,,Clear,160,2012-10-24 22:54:00
7:54 PM,62.1,54.0,75,30.05,7.0,SW,3.5,-,N/A,,Clear,220,2012-10-24 23:54:00
8:54 PM,59.0,52.0,78,30.06,7.0,Calm,Calm,-,N/A,,Clear,0,2012-10-25 00:54:00
9:54 PM,57.0,51.1,81,30.06,10.0,Calm,Calm,-,N/A,,Clear,0,2012-10-25 01:54:00
10:54 PM,55.9,51.1,84,30.07,10.0,Calm,Calm,-,N/A,,Clear,0,2012-10-25 02:54:00
11:54 PM,54.0,50.0,86,30.07,10.0,Calm,Calm,-,N/A,,Clear,0,2012-10-25 03:54:00